Regional Weather Roundup
Issued by NWS Bismarck, ND

Home | Current Version | Previous Version | Text Only | Print | Product List | Glossary On
Versions: 1 2 3 4 5 6 7 8 9 10 11 12 13 14 15 16 17 18 19 20 21 22 23 24 25 26 27 28 29 30 31 32 33 34 35 36 37 38 39 40 41 42 43 44 45 46 47 48 49 50
000
ASUS43 KBIS 282210
RWRBIS

NWR BROADCAST TEXT
NATIONAL WEATHER SERVICE BISMARCK ND
500 PM CDT THU MAY 28 2015

NOTE: "FAIR" INDICATES FEW OR NO CLOUDS BELOW 12,000 FEET WITH NO
SIGNIFICANT WEATHER AND/OR OBSTRUCTIONS TO VISIBILITY.


CITY           SKY/WX    TMP DP  RH WIND       PRES   REMARKS
WILLISTON      PTSUNNY   73  53  49 N18       29.89R
MINOT          PTSUNNY   68  56  65 NW13      29.86R
MINOT AFB      PTSUNNY   70  67  90 N7        29.85S
BISMARCK       PTSUNNY   78  55  44 W7        29.83F
DICKINSON      MOSUNNY   73  56  54 N20       29.86S
GARRISON         N/A     72  56  57 N6        29.85S
HETTINGER ARPT PTSUNNY   71  51  49 N7        29.89F
JAMESTOWN      PTSUNNY   75  62  64 W13       29.79F
BEACH          FAIR      73  50  43 N25G31    29.90S
CARRINGTON     MOCLDY    75  59  57 W15G21    29.82F
CROSBY         FAIR      73  54  49 N12       29.91S
HARVEY         FAIR      73  57  56 NW10G17   29.83F
HAZEN          FAIR      72  55  56 N10       29.86S
LINTON         FAIR      77  63  61 W7        29.82F
MANDAN         FAIR      75  55  50 NW6       29.85F
OAKES          LGT RAIN  73  64  73 W21G30    29.79S
STANLEY        FAIR      66  61  82 N9        29.90S
WATFORD CITY   MOCLDY    70  55  60 N14       29.87R
$$

CITY           SKY/WX    TMP DP  RH WIND       PRES   REMARKS
GRAND FORKS    TSTM      68  62  81 SW22G32   29.78R
GRAND FORKS AF CLOUDY    68  59  73 S21G29    29.78S
DEVILS LAKE    PTSUNNY   75  57  53 W13       29.80S
FARGO          HVY RAIN  66  61  84 W32G40    29.80R
CANDO          MOCLDY    75  59  57 W7        29.82F
GRAFTON        CLOUDY    72  66  83 NW29G35   29.78R THUNDER VSB 1
LANGDON        FAIR      75  59  57 W14G21    29.81F
ROLLA          CLOUDY    66  61  82 N14       29.85S
WALHALLA         N/A     70  70 100 MISG      29.80S
$$

CITY           SKY/WX    TMP DP  RH WIND       PRES   REMARKS
ABERDEEN       PTSUNNY   86  58  38 SW20G29   29.77F
MOBRIDGE       MOSUNNY   81  57  43 N7        29.78F
BUFFALO          N/A     68  54  60 NW15      29.85F
RAPID CITY     PTSUNNY   68  54  60 N13       29.91S
GLASGOW        TSTM      60  52  74 N16       30.00R
SIDNEY         PTSUNNY   75  52  43 N13       29.89S
WOLF POINT     CLOUDY    76  50  40 N9        29.92R
GLENDIVE       PTSUNNY   72  54  53 N15       29.92R
MILES CITY     PTSUNNY   75  50  41 N16G24    29.92S
BAKER          MOSUNNY   76  49  38 NW13G23   29.90F
$$

CITY           SKY/WX    TMP DP  RH WIND       PRES   REMARKS
BILLINGS       LGT RAIN  59  52  77 SW15      30.06S
GREAT FALLS    CLOUDY    55  51  86 N18       30.18R
REGINA         CLOUDY    54  43  66 N28G37    30.06R
ESTEVAN        CLOUDY    70  54  56 N7        29.91S
$$



USA.gov is the U.S. government's official web portal to all federal, state and local government web resources and services.